Tracking 19795 objects as of 18-Jul-2019
HD Live streaming from Space Station
objects crossing your sky now

RADUGA 1-5

Track RADUGA 1-5 now!
RADUGA 1-5 is classified as:


NORAD ID: 26477
Int'l Code: 2000-049A
Perigee: 35,787.5 km
Apogee: 35,826.6 km
Inclination: 12.4 °
Period: 1,436.8 minutes
Semi major axis: 42178 km
RCS: 10 m2 (large)
Launch date: August 28, 2000
Source: Commonwealth of Independent States (former USSR) (CIS)
Launch site: TYURATAM MISSILE AND SPACE COMPLEX (TTMTR)

Military communication.
aabbcc
Your satellite tracking list
Your tracking list is empty




NASA's NSSDC Master Catalog

Two Line Element Set (TLE):
1 26477U 00049A   19198.50188154 -.00000296  00000-0  00000+0 0  9996
2 26477  12.4412  26.7126 0004635 351.2334 193.8422  1.00224201 69157
Source of the keplerian elements: AFSPC